STARLINK-35534, 66202

Orbit data source: Space-Track

STARLINK-35534, 66202 is a payload satellite owned by SpaceX/Seattle (US) in LEO that was launched on Sun, 26 Oct 2025 UTC via an FALCON 9 launch vehicle from the Air Force Eastern Test Range (AFETR). Payload-class satellites include a variety of spacecraft equipped with specific instruments for various scientific and technological missions. These include communications satellites like Starlink; space stations such as the ISS; scientific satellites like the Hubble; Earth observation satellites from companies like Planet Labs, Umbra, and HawkEye 360; GPS; miniature CubeSats for education and research; and military/defense satellites.

Loading next visibility...
Identifier
66202, 2025-243AB
Orbit
LEO
Country
Flag of USUS
Related business
Manufacturer
SpaceX/Seattle
Mission
Operational Commercial Communications
Bus & Motor
STARLINK V2MO, Unknown motor
Mass
575 kg wet, ~530 kg dry
Launch date (UTC)
2025-10-26 (4 months ago)
Launch vehicle
FALCON 9
Launch site
Air Force Eastern Test Range (AFETR)
Object type
Payload
Rocket body
Debris
Shape & HBR
Box + 2 Pan, 17.7 m
Radar Cross Section
36.964 m²

Expand to show TLE details & history
Last TLE update: 9 hours ago

TLE from 9 hours ago
0 STARLINK-35534
1 66202U 25243AB  26061.76263639  .00022322  00000-0  76410-3 0  9991
2 66202  53.1565 277.3965 0001003  99.3612 260.7502 15.30174907 19599
Epoch: 2026-03-02T18:18Z
TLE epoch observation values (Epoch: 2026-03-02T18:18:11.784Z)
Latitude
-0.00001°
Longitude
-157.704°
Altitude
476.3 km
Speed
7.629 km/s
True Right ascension
18h 29m 35s
True Declination
0° 00' 00"
Sunlit
Object was in daylight at epoch
Visualization orbit readout
Latitude
Unknown
Longitude
Unknown
Altitude
Unknown
Speed
Unknown
Apparent Right ascension
Unknown
Apparent Declination
Unknown
Sunlit
N/A
Visualization observer readout
Local Sidereal Time
07:11:07
Azimuth
Unknown
Elevation
Unknown
Doppler factor
Unknown
Orbital elements
Apogee altitude
476.234 km
Perigee altitude
474.86 km
Semi-major axis
6,853.684 km
Eccentricity
0.0001
Inclination
53.1565°
RAAN
277.3965°
Arg. of periapsis
99.3612°
True anomaly
260.73886°
Mean anomaly
260.7502°
Eccentric anomaly
260.74453°
Mean motion
3.82523 °/min
Orbital period
94.11 mins
BSTAR
0.0007641
Loading maneuver chart data...
Computing Atmospheric mass density...
Loading historical data...
Loading historical data...
Loading historical data...
Loading historical data...
Loading historical data...
Loading historical data...
Loading historical data...

Documentation

Showing up to 5 results
|